Flag for Germany Weather past 2 weeks in Siegburg, North Rhine-Westphalia, Germany

Now
51 °F

Light freezing rain. Low clouds.


Feels Like: 47 °F
Forecast: 47 / 52 °F
Wind: 12 mph from Southwest

Location: Bonn-Hangelar

Current Time: Mar 28, 2015 at 11:53:21 PM

Latest Report: Mar 28, 2015 at 11:00 PM


Visibility: 2 mi

Pressure: 29.82 "Hg

Humidity: 95%

Dew point: 50 °F

Location of SiegburgLocation

Historic Weather in Siegburg — Graph

°F

Siegburg temperature yesterday

Maximum temperature yesterday: 48 °F (at 5:00 PM)
Minimum temperature yesterday: 37 °F (at 5:00 AM)
Average temperature yesterday: 42 °F

Past Weeks' High & Low Weather Summary

 TemperatureHumidityPressure
High60 °F (Mar 17, 1:00 PM)100% (Mar 16, 7:00 AM)30.40 "Hg (Mar 16, 7:00 AM)
Low32 °F (Mar 16, 4:00 AM)46% (Mar 17, 1:00 PM)29.68 "Hg (Mar 25, 4:00 AM)
Average42 °F85%30.12 "Hg
* Reported Mar 13 10:00 PM — Mar 28 10:00 PM, Siegburg, Weather by CustomWeather, © 2015

Note: Actual official high and low records may vary slightly from our data, if they occured in-between our weather recording intervals... More about our weather records

Advertising

Siegburg weather history for previous 24 hours

 ConditionsComfort  
Time TempWeatherWind HumidityBarometerVisibility
10:00 PM
Sat, Mar 28
52 °FLow clouds.12 mph91%29.83 "Hg9 mi
9:00 PM50 °FPassing clouds.7 mph93%29.86 "Hg11 mi
8:00 PM50 °FLight freezing rain. Low clouds.10 mph93%29.89 "Hg3 mi
7:00 PM49 °FPassing clouds.12 mph90%29.90 "Hg25 mi
6:00 PM49 °FOvercast.12 mph91%29.90 "Hg22 mi
5:00 PM49 °FLow clouds.10 mph92%29.93 "Hg25 mi
4:00 PM47 °FRain. Low clouds.8 mph95%29.96 "Hg4 mi
3:00 PM47 °FRain. Low clouds.10 mph94%29.98 "Hg4 mi
2:00 PM46 °FLight rain. Overcast.9 mph92%30.00 "Hg6 mi
1:00 PM47 °FLight rain. Overcast.8 mph82%30.02 "Hg19 mi
12:00 PM49 °FOvercast.9 mph74%30.04 "Hg25 mi
11:00 AM48 °FOvercast.9 mph68%30.07 "Hg22 mi
10:00 AM48 °FOvercast.9 mph67%30.10 "Hg22 mi
9:00 AM45 °FPartly sunny.7 mph69%30.12 "Hg19 mi
8:00 AM44 °FScattered clouds.7 mph70%30.14 "Hg25 mi
7:00 AM42 °FOvercast.6 mph72%30.17 "Hg31 mi
6:00 AM41 °FOvercast.6 mph74%30.17 "Hg28 mi
4:00 AM39 °FOvercast.3 mph82%30.22 "Hg13 mi
3:00 AM38 °FPassing clouds.5 mph85%30.22 "Hg8 mi
2:00 AM37 °FPassing clouds.3 mph84%30.23 "Hg8 mi
1:00 AM40 °FPassing clouds.2 mph81%30.23 "Hg9 mi
12:00 AM40 °FOvercast.2 mph82%30.24 "Hg10 mi
11:00 PM
Fri, Mar 27
39 °FPassing clouds.13 mph82%30.25 "Hg2 mi
Weather by CustomWeather, © 2015

See weather overviewHow to use our weather pages